Time,TemperatureF,DewpointF,PressureIn,WindDirection,WindDirectionDegrees,WindSpeedMPH,WindSpeedGustMPH,Humidity,HourlyPrecipIn,Conditions,Clouds,dailyrainin,SoftwareType,DateUTC
2013-01-31 00:00:00,80.0,76.0,29.90,North,360,10.0,-999.0,87,-99.99,,,-99.99,,2013-01-31 00:00:00,
2013-01-31 00:21:00,80.0,76.0,29.90,North,360,10.0,-999.0,87,-99.99,,,-99.99,,2013-01-31 00:21:00,
2013-01-31 00:31:00,80.0,76.0,29.90,North,360,10.0,-999.0,87,-99.99,,,-99.99,,2013-01-31 00:31:00,
2013-01-31 00:41:00,80.0,76.0,29.90,North,360,10.0,-999.0,87,-99.99,,,-99.99,,2013-01-31 00:41:00,
2013-01-31 00:52:00,80.0,76.0,29.90,North,360,10.0,-999.0,87,-99.99,,,-99.99,,2013-01-31 00:52:00,
2013-01-31 01:00:00,80.0,-99.9,29.91,North,10,9.0,-999.0,-999,-99.99,,,-99.99,,2013-01-31 01:00:00,
2013-01-31 01:22:00,80.0,-99.9,29.91,North,10,9.0,-999.0,-999,-99.99,,,-99.99,,2013-01-31 01:22:00,
2013-01-31 01:32:00,80.0,-99.9,29.91,North,10,9.0,-999.0,-999,-99.99,,,-99.99,,2013-01-31 01:32:00,
2013-01-31 01:42:00,80.0,-99.9,29.91,North,10,9.0,-999.0,-999,-99.99,,,-99.99,,2013-01-31 01:42:00,
2013-01-31 01:53:00,80.0,-99.9,29.91,North,10,9.0,-999.0,-999,-99.99,,,-99.99,,2013-01-31 01:53:00,
2013-01-31 17:00:00,81.0,-99.9,29.83,ENE,60,5.0,-999.0,-999,-99.99,,,-99.99,,2013-01-31 17:00:00,
2013-01-31 17:23:00,81.0,-99.9,29.83,ENE,60,5.0,-999.0,-999,-99.99,,,-99.99,,2013-01-31 17:23:00,
2013-01-31 17:32:00,81.0,-99.9,29.83,ENE,60,5.0,-999.0,-999,-99.99,,,-99.99,,2013-01-31 17:32:00,
2013-01-31 17:44:00,81.0,-99.9,29.83,ENE,60,5.0,-999.0,-999,-99.99,,,-99.99,,2013-01-31 17:44:00,
2013-01-31 17:53:00,81.0,-99.9,29.83,ENE,60,5.0,-999.0,-999,-99.99,,,-99.99,,2013-01-31 17:53:00,
2013-01-31 18:00:00,87.0,77.0,29.83,East,80,0.0,-999.0,72,-99.99,,,-99.99,,2013-01-31 18:00:00,
2013-01-31 18:22:00,81.0,-99.9,29.82,NE,50,3.0,-999.0,-999,-99.99,,,-99.99,,2013-01-31 18:22:00,
2013-01-31 18:31:00,87.0,77.0,29.83,East,80,0.0,-999.0,72,-99.99,,,-99.99,,2013-01-31 18:31:00,
2013-01-31 18:42:00,87.0,77.0,29.83,East,80,0.0,-999.0,72,-99.99,,,-99.99,,2013-01-31 18:42:00,
2013-01-31 18:52:00,87.0,77.0,29.83,East,80,0.0,-999.0,72,-99.99,,,-99.99,,2013-01-31 18:52:00,
2013-01-31 19:00:00,81.0,-99.9,29.84,ESE,120,5.0,-999.0,-999,-99.99,,,-99.99,,2013-01-31 19:00:00,
2013-01-31 19:22:00,81.0,-99.9,29.84,ESE,120,5.0,-999.0,-999,-99.99,,,-99.99,,2013-01-31 19:22:00,
2013-01-31 19:33:00,81.0,-99.9,29.84,ESE,120,5.0,-999.0,-999,-99.99,,,-99.99,,2013-01-31 19:33:00,
2013-01-31 19:43:00,81.0,-99.9,29.84,ESE,120,5.0,-999.0,-999,-99.99,,,-99.99,,2013-01-31 19:43:00,
2013-01-31 19:52:00,81.0,-99.9,29.84,ESE,120,5.0,-999.0,-999,-99.99,,,-99.99,,2013-01-31 19:52:00,
2013-01-31 20:00:00,81.0,-99.9,29.85,ESE,120,3.0,-999.0,-999,-99.99,,,-99.99,,2013-01-31 20:00:00,
2013-01-31 20:22:00,81.0,-99.9,29.85,ESE,120,3.0,-999.0,-999,-99.99,,,-99.99,,2013-01-31 20:22:00,
2013-01-31 20:32:00,81.0,-99.9,29.85,ESE,120,3.0,-999.0,-999,-99.99,,,-99.99,,2013-01-31 20:32:00,
2013-01-31 20:42:00,81.0,-99.9,29.85,ESE,120,3.0,-999.0,-999,-99.99,,,-99.99,,2013-01-31 20:42:00,
2013-01-31 20:53:00,81.0,-99.9,29.85,ESE,120,3.0,-999.0,-999,-99.99,,,-99.99,,2013-01-31 20:53:00,
2013-01-31 21:00:00,81.0,-99.9,29.86,ENE,60,3.0,-999.0,-999,-99.99,,,-99.99,,2013-01-31 21:00:00,
2013-01-31 21:22:00,81.0,-99.9,29.86,ENE,60,3.0,-999.0,-999,-99.99,,,-99.99,,2013-01-31 21:22:00,
2013-01-31 21:32:00,81.0,-99.9,29.86,ENE,60,3.0,-999.0,-999,-99.99,,,-99.99,,2013-01-31 21:32:00,
2013-01-31 21:42:00,81.0,-99.9,29.86,ENE,60,3.0,-999.0,-999,-99.99,,,-99.99,,2013-01-31 21:42:00,
2013-01-31 21:52:00,81.0,-99.9,29.86,ENE,60,3.0,-999.0,-999,-99.99,,,-99.99,,2013-01-31 21:52:00,
2013-01-31 22:00:00,81.0,-99.9,29.89,North,0,0.0,-999.0,-999,-99.99,,,-99.99,,2013-01-31 22:00:00,
2013-01-31 22:22:00,81.0,-99.9,29.89,North,0,0.0,-999.0,-999,-99.99,,,-99.99,,2013-01-31 22:22:00,
2013-01-31 22:33:00,81.0,-99.9,29.89,North,0,0.0,-999.0,-999,-99.99,,,-99.99,,2013-01-31 22:33:00,
2013-01-31 22:42:00,81.0,-99.9,29.89,North,0,0.0,-999.0,-999,-99.99,,,-99.99,,2013-01-31 22:42:00,
2013-01-31 22:52:00,81.0,-99.9,29.89,North,0,0.0,-999.0,-999,-99.99,,,-99.99,,2013-01-31 22:52:00,
2013-01-31 23:00:00,81.0,-99.9,29.89,NE,40,5.0,-999.0,-999,-99.99,,,-99.99,,2013-01-31 23:00:00,
2013-01-31 23:22:00,81.0,-99.9,29.89,NE,40,5.0,-999.0,-999,-99.99,,,-99.99,,2013-01-31 23:22:00,
2013-01-31 23:32:00,81.0,-99.9,29.89,NE,40,5.0,-999.0,-999,-99.99,,,-99.99,,2013-01-31 23:32:00,
2013-01-31 23:43:00,81.0,-99.9,29.89,NE,40,5.0,-999.0,-999,-99.99,,,-99.99,,2013-01-31 23:43:00,
2013-01-31 23:52:00,81.0,-99.9,29.89,NE,40,5.0,-999.0,-999,-99.99,,,-99.99,,2013-01-31 23:52:00,